Location: Newark
(11.2914°S, 14.4718°E)
Time: 10:07:19
(UTC+00:00)

Transit 2A - All Passes

Search period start: 15 September 2019 00:00
Search period end: 25 September 2019 00:00
Orbit: 598 x 961 km, 66.7° (Epoch: 14 September)

Date Brightness Start Highest point End Pass type
(mag) Time Alt. Az. Time Alt. Az. Time Alt. Az.
15 Sep - 01:05:50 10° SSW 01:12:12 77° WNW 01:18:25 10° NNE night (unlit)
15 Sep - 13:47:44 10° NNW 13:52:00 55° WSW 13:56:37 10° S daylight
16 Sep - 00:31:46 10° SSW 00:38:07 70° ESE 00:44:19 10° NNE night (unlit)
16 Sep - 02:19:56 10° W 02:20:52 10° WNW 02:21:48 10° WNW night (unlit)
16 Sep - 13:13:35 10° NNW 13:17:56 80° ENE 13:22:38 10° SSE daylight
16 Sep - 23:57:58 10° S 00:04:00 44° ESE 00:09:55 10° NE night (unlit)
17 Sep - 01:42:48 10° WSW 01:46:53 18° WNW 01:50:53 10° NNW night (unlit)
17 Sep - 12:39:47 10° N 12:43:55 42° ENE 12:48:19 10° SE daylight
17 Sep - 23:24:26 10° S 23:29:51 29° ESE 23:35:09 10° NE night (unlit)
18 Sep - 01:07:34 10° SW 01:12:52 28° WNW 01:18:04 10° NNW night (unlit)
18 Sep - 12:06:26 10° NNE 12:09:55 23° ENE 12:13:35 10° SE daylight
18 Sep - 13:50:08 10° WNW 13:52:54 16° WSW 13:55:46 10° SSW daylight
18 Sep - 22:51:23 10° SSE 22:55:38 19° ESE 22:59:52 10° ENE night (unlit)
19 Sep - 00:32:51 10° SW 00:38:51 44° WNW 00:44:43 10° N night (unlit)
19 Sep - 11:33:55 10° NE 11:35:57 13° ENE 11:38:03 10° ESE daylight
19 Sep - 13:14:55 10° NW 13:18:41 27° WSW 13:22:44 10° S daylight
19 Sep - 22:19:30 10° SE 22:21:23 11° ESE 22:23:16 10° E night (unlit)
19 Sep - 23:58:28 10° SSW 00:04:49 70° WNW 00:10:58 10° NNE night (unlit)
20 Sep - 12:40:17 10° NW 12:44:32 49° WSW 12:49:08 10° S daylight
20 Sep - 23:24:21 10° SSW 23:30:44 76° ESE 23:36:56 10° NNE night (unlit)
21 Sep - 12:06:04 10° NNW 12:10:27 90° WSW 12:15:13 10° SSE daylight
21 Sep - 22:50:29 10° S 22:56:38 49° ESE 23:02:36 10° NE night (unlit)
22 Sep - 00:35:48 10° WSW 00:39:27 16° WNW 00:43:03 10° NW night (unlit)
22 Sep - 11:32:11 10° N 11:36:25 48° ENE 11:40:58 10° SE daylight
22 Sep - 22:16:54 10° S 22:22:29 32° ESE 22:27:55 10° NE night (unlit)
23 Sep - 00:00:23 10° SW 00:05:28 26° WNW 00:10:26 10° NNW night (unlit)
23 Sep - 10:58:43 10° NNE 11:02:25 27° ENE 11:06:21 10° SE daylight
23 Sep - 12:43:00 10° W 12:45:28 14° WSW 12:48:01 10° SSW daylight
23 Sep - 21:43:42 10° SSE 21:48:17 20° ESE 21:52:46 10° ENE night (unlit)
23 Sep - 23:25:34 10° SW 23:31:27 40° WNW 23:37:09 10° N night (unlit)
24 Sep - 10:25:55 10° NE 10:28:28 15° ENE 10:31:05 10° ESE daylight
24 Sep - 12:07:34 10° WNW 12:11:14 25° WSW 12:15:09 10° S daylight
24 Sep - 21:11:22 10° SE 21:14:02 13° ESE 21:16:40 10° E night (unlit)
24 Sep - 22:51:07 10° SSW 22:57:26 64° WNW 23:03:30 10° N night (unlit)
